This is the latest recevied weather packets stored in our database for station/object N5ATR. If no packets are shown the sender has not sent any weather packets the latest 10 day(s).
| Time | Temp. | Humidity | Pressure | Rain* | Wind** | Luminosity | Snow |
|---|---|---|---|---|---|---|---|
| 1778034405 | 8.33° C | 69% | 1010.6 hPa | 0 mm | - | 0 W/m² | - |
| 1778034102 | 8.33° C | 69% | 1010.8 hPa | 0 mm | - | 0 W/m² | - |
| 1778033800 | 8.33° C | 68% | 1010.6 hPa | 0 mm | - | 0 W/m² | - |
| 1778033497 | 8.33° C | 68% | 1010.5 hPa | 0 mm | - | 0 W/m² | - |
| 1778033194 | 8.33° C | 67% | 1010.3 hPa | 0 mm | - | 0 W/m² | - |
| 1778032891 | 8.89° C | 67% | 1010.3 hPa | 0 mm | - | 1 W/m² | - |
| 1778032589 | 8.89° C | 66% | 1010.2 hPa | 0 mm | - | 2 W/m² | - |
| 1778032285 | 9.44° C | 64% | 1010.2 hPa | 0 mm | - | 5 W/m² | - |
| 1778031983 | 10° C | 63% | 1010 hPa | 0 mm | - | 7 W/m² | - |
| 1778031679 | 10° C | 63% | 1010.1 hPa | 0 mm | - | 22 W/m² | - |
| 1778031377 | 9.44° C | 63% | 1010 hPa | 0 mm | - | 23 W/m² | - |
| 1778031074 | 9.44° C | 63% | 1009.6 hPa | 0 mm | - | 12 W/m² | - |
| 1778030770 | 9.44° C | 62% | 1009.8 hPa | 0 mm | - | 16 W/m² | - |
| 1778030466 | 10.56° C | 60% | 1010.1 hPa | 0 mm | - | 19 W/m² | - |
| 1778030164 | 10.56° C | 58% | 1010 hPa | 0 mm | - | 45 W/m² | - |
| 1778029859 | 11.11° C | 56% | 1010.1 hPa | 0 mm | - | 22 W/m² | - |
| 1778029554 | 11.11° C | 58% | 1009.6 hPa | 0 mm | - | 21 W/m² | - |
| 1778029250 | 11.11° C | 58% | 1009.5 hPa | 0 mm | - | 18 W/m² | - |
| 1778028947 | 11.11° C | 58% | 1009.5 hPa | 0 mm | - | 28 W/m² | - |
| 1778028643 | 11.11° C | 58% | 1010 hPa | 0 mm | - | 44 W/m² | - |
| 1778028341 | 11.11° C | 57% | 1009.6 hPa | 0 mm | - | 29 W/m² | - |
| 1778028037 | 11.67° C | 56% | 1009.6 hPa | 0 mm | - | 41 W/m² | - |
| 1778027734 | 11.67° C | 56% | 1009.7 hPa | 0 mm | - | 37 W/m² | - |
| 1778027430 | 11.67° C | 55% | 1009.3 hPa | 0 mm | - | 35 W/m² | - |
| 1778027126 | 12.22° C | 54% | 1009.6 hPa | 0 mm | - | 65 W/m² | - |
* Rain latest hour (hover to see other rain measurements)
** Current wind speed in m/s (hover to see current wind gust speed)